Regional Weather Roundup
Issued by NWS Little Rock, AR

Home | Current Version | Previous Version | Text Only | Print | Product List | Glossary Off
Versions: 1 2 3 4 5 6 7 8 9 10 11 12 13 14 15 16 17 18 19 20 21 22 23 24 25 26 27

000
ASUS44 KLZK 161605
RWRLZK

WEATHER ROUNDUP FOR ARKANSAS
NATIONAL WEATHER SERVICE LITTLE ROCK AR
1100 AM CDT WED APR 16 2014

NOTE: "FAIR" INDICATES FEW OR NO CLOUDS BELOW 12,000 FEET WITH NO
SIGNIFICANT WEATHER AND/OR OBSTRUCTIONS TO VISIBILITY.

ARZ001-003-010-029-161700-
NORTHWEST ARKANSAS

CITY           SKY/WX    TMP DP  RH WIND       PRES   REMARKS
FAYETTEVILLE   SUNNY     52  31  44 S24G31    30.12S
FORT SMITH     MOSUNNY   56  33  42 SE10G18   30.16F
HARRISON       SUNNY     52  29  41 S22G31    30.16S
BENTONVILLE    SUNNY     55  30  38 S21G26    30.12R
ROGERS         SUNNY     54  29  38 SE21G30   30.11S
HIGHFILL       SUNNY     54  30  40 S23G36    30.09S
SPRINGDALE     MOSUNNY   54  30  40 SE15G24   30.13R
$$

ARZ004-005-016-161700-
NORTH CENTRAL ARKANSAS

CITY           SKY/WX    TMP DP  RH WIND       PRES   REMARKS
BATESVILLE     SUNNY     52  25  35 E13       30.26F
FLIPPIN        SUNNY     52  27  37 SE10G17   30.21S
MTN HOME       SUNNY     51  25  36 SE14G23   30.20S
$$

ARZ040-041-161700-
WEST CENTRAL ARKANSAS

CITY           SKY/WX    TMP DP  RH WIND       PRES   REMARKS
MENA           MOSUNNY   54  32  43 SE8G16    30.18S
MOUNT IDA      SUNNY     52  30  43 SE9       30.18F
$$

ARZ009-017-025-026-028-161700-
NORTHEAST ARKANSAS

CITY           SKY/WX    TMP DP  RH WIND       PRES   REMARKS
CORNING          N/A     48  28  46 SE10      30.31F
JONESBORO      SUNNY     48  28  46 SE10      30.30S
NEWPORT        SUNNY     50  31  48 SE12      30.30F
BLYTHEVILLE    SUNNY     48  26  42 E8        30.31F
NW BLYTHEVILLE MOSUNNY   50  28  43 E10       30.32S
$$

ARZ022-023-033-042-044-161700-
CENTRAL ARKANSAS

CITY           SKY/WX    TMP DP  RH WIND       PRES   REMARKS
LITTLE ROCK    MOSUNNY   52  29  41 SE14      30.26F
N LITTLE ROCK  MOSUNNY   51  31  47 SE14G21   30.26F
JACKSONVILLE   SUNNY     51  28  41 SE12G21   30.26F
SEARCY         SUNNY     52  30  43 S14       30.28F
HOT SPRINGS    SUNNY     54  29  38 S10       30.23F
RUSSELLVILLE   SUNNY     54  28  36 VRB7      30.22F
CLINTON        FAIR      54  30  40 SE7       30.25S
$$

ARZ036-161700-
EAST ARKANSAS

CITY           SKY/WX    TMP DP  RH WIND       PRES   REMARKS
WEST MEMPHIS   SUNNY     50  28  42 E8        30.29S
$$

ARZ050-053-066-070-073-161700-
SOUTHWEST ARKANSAS

CITY           SKY/WX    TMP DP  RH WIND       PRES   REMARKS
ARKADELPHIA    FAIR      55  32  41 S9        30.26F
CAMDEN         SUNNY     54  28  37 MISG      30.26S
TEXARKANA      SUNNY     54  33  45 S15       30.23S
EL DORADO      SUNNY     53  30  41 E13       30.25F
DE QUEEN       PTSUNNY   53  34  48 S8        30.19F
$$

ARZ056-057-069-161700-
SOUTHEAST ARKANSAS

CITY           SKY/WX    TMP DP  RH WIND       PRES   REMARKS
PINE BLUFF     SUNNY     50  31  48 SE15      30.27F
STUTTGART      MOSUNNY   52  30  43 SE13      30.27F
MONTICELLO     SUNNY     51  27  39 SE7       30.27F

$$





USA.gov is the U.S. government's official web portal to all federal, state and local government web resources and services.